User: anonymous   Login
Location: Croydon
(51.3762°N, 0.0982°W)
Time: 07:19:16
(UTC+01:00)
Language:

ESTCUBE 1 - Orbit

View from above orbital plane
View from above orbital plane
View from above satellite
View from above satellite

Ground track
Ground track

The orbit data is extracted from the following two-line orbital elements,

1 39161U 13021C   19114.19385367  .00000183  00000-0  36883-4 0  9999
2 39161  97.9874 200.0430 0010478 137.5792 222.6241 14.72183549320209
Epoch (UTC): 24 April 2019 04:39:08
Eccentricity: 0.0010478
inclination: 97.9874°
perigee height: 647 km
apogee height: 661 km
right ascension of ascending node: 200.0430°
argument of perigee: 137.5792°
revolutions per day: 14.72183549
mean anomaly at epoch: 222.6241°
orbit number at epoch: 32020

The dashed part of the orbit path shows where the satellite is in the earth's shadow,  

DLR